THOR ABLESTAR R/B, 953

Orbit data source: Space-Track

THOR ABLESTAR R/B, 953 is space debris in LEO originally from a launch on Sun, 13 Dec 1964 UTC launched from the Air Force Western Test Range (AFWTR). Debris objects in space refer to the collection of defunct objects orbiting the Earth. Examples of debris include non-operational satellites, rocket bodies, and fragments generated from explosions, collisions, or faulty payload assembly.

Loading next visibility...
Identifier
953, 1964-083A
Orbit
LEO
Country
Flag of USUS
Related business
Manufacturer
Aerojet
Mission
Spacecraft
Bus & Motor
ABLESTAR, Unknown motor
Mass
~600 kg wet, 600 kg dry
Launch date (UTC)
1964-12-13 (61 years ago)
Launch vehicle
Unknown
Launch site
Air Force Western Test Range (AFWTR)
Object type
Payload
Rocket body
Debris
Shape & HBR
Cyl, 2.4 m
Radar Cross Section
6.048 m², Large (>1 m²)

Expand to show TLE details & history
Last TLE update: 19 hours ago

TLE from 19 hours ago
0 THOR ABLESTAR R/B
1 00953U 64083A   25260.25806755  .00000039  00000-0  39736-4 0  9995
2 00953  90.0312 192.1649 0032488 152.3935  12.9228 13.58811346 11511
Epoch: 2025-09-17T06:11Z
TLE epoch observation values (Epoch: 2025-09-17T06:11:37.036Z)
Latitude
14.57142°
Longitude
-77.16795°
Altitude
1,018.778 km
Speed
7.355 km/s
True Right ascension
00h 48m 41s
True Declination
14° 29' 27"
Sunlit
Object was in full shadow at epoch
Visualization orbit readout
Latitude
Unknown
Longitude
Unknown
Altitude
Unknown
Speed
Unknown
Apparent Right ascension
Unknown
Apparent Declination
Unknown
Sunlit
N/A
Visualization observer readout
Local Sidereal Time
17:41:47
Azimuth
Unknown
Elevation
Unknown
Doppler factor
Unknown
Orbital elements
Apogee altitude
1,061.142 km
Perigee altitude
1,012.961 km
Semi-major axis
7,415.189 km
Eccentricity
0.00325
Inclination
90.0312°
RAAN
192.1649°
Arg. of periapsis
152.3935°
True anomaly
13.00639°
Mean anomaly
12.9228°
Eccentric anomaly
12.96456°
Mean motion
3.39907 °/min
Orbital period
105.91 mins
BSTAR
0.000039736
Loading maneuver chart data...
Computing Atmospheric mass density...

Documentation

Showing up to 5 results
|